Location: *
(45.9500°N, 9.0833°E)
Time: 20:42:37
(UTC+00:00)

Vanguard 2 Rocket - Pass Details

Date: 15 June 2021
Orbit: 555 x 3325 km, 32.9° (Epoch: 30 July)

Event Time Altitude Azimuth Distance (km) Brightness Sun altitude
Rises 19:22:43 0° 228° (SW) 7,290 11.6 -1.8°
Reaches altitude 10° 19:28:23 10° 221° (SW) 6,153 11.2 -2.5°
Maximum altitude 19:44:23 37° 163° (SSE) 3,526 9.5 -4.7°
Drops below altitude 10° 19:55:19 10° 102° (ESE) 4,256 9.8 -6.1°
Sets 19:58:24 0° 94° (E) 4,907 10.2 -6.5°
